Location: ????????
(55.3155°N, 39.2900°E)
Time: 09:36:04
(UTC+00:00)

ARIANE 6 FM1 Upper Stage - Pass Details

Date: 21 November 2025
Orbit: 522 x 612 km, 62.0° (Epoch: 07 December)

Event Time Altitude Azimuth Distance (km) Brightness Sun altitude
Rises 16:21:18 0° 301° (WNW) 2,660 7.1 -26.6°
Reaches altitude 10° 16:23:34 10° 308° (NW) 1,769 5.9 -27.0°
Enters shadow 16:25:38 27° 325° (NW) 1,035 4.3 -27.3°
